Flag for U.S.A. Weather past 2 weeks in Cumberland, Maryland, U.S.A.

Now
50 °F

Sunny.


Feels Like: 50 °F
Forecast: 42 / 73 °F
Wind: No wind

Location: Eastern West Virginia Regional Airport

Current Time: Sep 23, 2014 at 9:23:51 AM

Latest Report: Sep 23, 2014 at 8:53 AM


Visibility: 10 mi

Pressure: 30.37 "Hg

Humidity: 74%

Dew point: 42 °F

Location of CumberlandLocation

Historic Weather in Cumberland — Graph

°F

Cumberland temperature yesterday

Maximum temperature yesterday: 70 °F (at 1:53 PM)
Minimum temperature yesterday: 54 °F (at 11:53 PM)
Average temperature yesterday: 64 °F

Past Weeks' High & Low Weather Summary

 TemperatureHumidityPressure
High86 °F (Sep 21, 2:53 PM)90% (Sep 16, 4:53 AM)30.35 "Hg (Sep 16, 4:53 AM)
Low43 °F (Sep 23, 6:53 AM)32% (Sep 18, 4:53 PM)29.64 "Hg (Sep 21, 4:53 PM)
Average65 °F66%30.09 "Hg
* Reported Sep 8 7:53 AM — Sep 23 7:53 AM, Cumberland, Weather by CustomWeather, © 2014

Note: Actual official high and low records may vary slightly from our data, if they occured in-between our weather recording intervals... More about our weather records

Advertising

Cumberland weather history for previous 24 hours

 ConditionsComfort  
Time TempWeatherWind HumidityBarometerVisibility
7:53 AM
Sep 23
45 °FClear.No wind82%30.34 "Hg9 mi
6:53 AM43 °FClear.3 mph82%30.34 "Hg10 mi
5:53 AM45 °FClear.No wind76%30.30 "Hg10 mi
4:53 AM47 °FClear.No wind71%30.29 "Hg10 mi
3:53 AM45 °FClear.3 mph80%30.28 "Hg10 mi
2:53 AM51 °FClear.No wind63%30.27 "Hg10 mi
1:53 AM52 °FClear.7 mph64%30.27 "Hg10 mi
12:53 AM52 °FClear.5 mph64%30.26 "Hg10 mi
11:53 PM
Sep 22
54 °FClear.6 mph57%30.26 "Hg10 mi
10:53 PM55 °FClear.5 mph55%30.25 "Hg10 mi
9:53 PM58 °FClear.3 mph50%30.23 "Hg10 mi
8:53 PM59 °FClear.8 mph49%30.19 "Hg10 mi
7:53 PM62 °FSunny.9 mph43%30.16 "Hg10 mi
6:53 PM65 °FSunny.10 mph39%30.11 "Hg10 mi
5:53 PM68 °FSunny.14 mph35%30.09 "Hg10 mi
4:53 PM69 °FSunny.10 mph36%30.08 "Hg10 mi
3:53 PM69 °FSunny.17 mph38%30.06 "Hg10 mi
2:53 PM70 °FSunny.14 mph34%30.06 "Hg10 mi
1:53 PM70 °FSunny.14 mph35%30.06 "Hg10 mi
12:53 PM68 °FPassing clouds.12 mph39%30.07 "Hg10 mi
11:53 AM66 °FPartly sunny.15 mph43%30.06 "Hg10 mi
10:53 AM63 °FOvercast.12 mph48%30.06 "Hg10 mi
9:53 AM62 °FPassing clouds.13 mph50%30.04 "Hg10 mi
Weather by CustomWeather, © 2014

See weather overviewHow to use our weather pages